Погода в Новых Белокоровичах

Украина / Житомирская область     51°06′50″N   28°03′07″E
темп.,
°C
ветер,
м/с
пор.,
м/с
влажн.,
%
обл.,
%
осадки,
мм/ч
давл.,
гПа
погр.,
м
11 мая, вт
вт1100:00+9юв37830 0.0 102396
03:00+7юв37740 0.0 1024108
06:00+6вюв34760 0.0 102463
09:00+12вюв35620 0.0 1024374
12:00+16в34440 0.0 10221075
15:00+19вюв34460 0.0 10201091
18:00+19вюв34521 0.0 1019861
21:00+13в33755 0.0 101936
12 мая, ср
ср1200:00+11в38870 0.0 1018142
03:00+11в512974 0.0 1017294
06:00+10вюв6109196 0.0 1018522
09:00+11вюв79710 0.0 1018866
12:00+13вюв895948 0.0 10171450
15:00+12вюв6963100 0.0 10171404
18:00+13вюв5963100 0.0 10151606
21:00+9в34825 0.1 101456
13 мая, чт
чт1300:00+7вюв229295 0.0 101322
03:00+6юв2294100 0.0 101244
06:00+6юв239440 0.0 101057
09:00+10юв5775100 0.0 1010646
12:00+14ююв685985 0.1 10091669
15:00+12ю71175100 0.1 1008762
18:00+12ююв71279100 0.0 1008864
21:00+10юв71583100 0.1 1008568
14 мая, пт
пт1400:00+11юв61390100 0.0 1007541
03:00+11юв51193100 0.4 1006576
06:00+11юв4996100 0.3 1006408
09:00+12ююв368972 0.3 1006312
12:00+18ююв4566100 0.0 10061134
15:00+18ю4566100 2.4 10061223
18:00+15ююв3686100 3.6 1006139
21:00+12юз228768 6.0 100733
15 мая, сб
сб1500:00+11юз37927 0.0 1008129
03:00+9юз3593100 0.0 100893
06:00+8ююз389399 0.0 1009225
09:00+13юз588160 0.0 1009683
12:00+15ююз577095 0.4 10101285
15:00+16зюз567084 1.7 10101277
18:00+16зюз356516 0.3 10101179
21:00+11зюз22896 0.4 101122